{"data":{"norad_id":63152,"intl_designator":"2025-043W","name":"STARLINK-32915","alt_names":[],"object_type":"PAYLOAD","status":"ACTIVE","operator":null,"country":"US","launch_date":"2025-03-03","launch_site_code":"AFETR","launch_vehicle":null,"mission":null,"orbit_class":"UNKNOWN","rcs_meters":null,"size_class":null,"mass_kg":null,"dimensions":null,"purposes":["comms"],"wikipedia_slug":null,"has_3d_model":false,"image_url":null,"decayed_at":null,"tle_current":{"epoch":"2026-09-21T17:20:09.218688Z","epoch_age_seconds":56589,"freshness":"FRESH","line1":"1 63152U 25043W   26264.72232892  .00015555  00000+0  57328-3 0  9994","line2":"2 63152  43.0056 355.9644 0002202 282.1283  77.9322 15.27598156 87267","mean_motion":15.27598156,"eccentricity":0.0002202,"inclination_deg":43.0056,"raan_deg":355.9644,"arg_perigee_deg":282.1283,"mean_anomaly_deg":77.9322,"bstar":0.00057328,"rev_number":8726,"period_min":94.265628322741,"perigee_km":481.48390977536,"apogee_km":484.50555218969,"semimajor_km":6861.1317309825,"source":"CELESTRAK","updated_at":"2026-09-22T09:00:49.794196Z"}}}